TimeEDT,TemperatureF,Dew PointF,Humidity,Sea Level PressureIn,VisibilityMPH,Wind Direction,Wind SpeedMPH,Gust SpeedMPH,PrecipitationIn,Events,Conditions,WindDirDegrees,DateUTC
12:53 AM,75.0,72.0,90,30.06,10.0,NE,5.8,-,N/A,,Clear,50,2013-09-19 04:53:00
1:53 AM,73.9,72.0,93,30.05,10.0,NNE,5.8,-,N/A,,Clear,30,2013-09-19 05:53:00
2:53 AM,73.9,72.0,93,30.03,10.0,NE,5.8,-,N/A,,Clear,40,2013-09-19 06:53:00
3:53 AM,73.9,72.0,93,30.02,10.0,NNE,5.8,-,N/A,,Clear,30,2013-09-19 07:53:00
4:32 AM,73.4,71.6,94,30.02,10.0,NNE,3.5,-,N/A,,Mostly Cloudy,30,2013-09-19 08:32:00
4:53 AM,73.9,72.0,93,30.02,10.0,NE,3.5,-,N/A,,Overcast,40,2013-09-19 08:53:00
5:53 AM,73.0,72.0,96,30.03,10.0,North,4.6,-,N/A,,Clear,360,2013-09-19 09:53:00
6:24 AM,73.4,71.6,94,30.03,10.0,North,4.6,-,N/A,,Mostly Cloudy,10,2013-09-19 10:24:00
6:38 AM,73.4,71.6,94,30.03,10.0,NNE,3.5,-,N/A,,Scattered Clouds,20,2013-09-19 10:38:00
6:53 AM,73.0,72.0,96,30.03,10.0,NE,3.5,-,N/A,,Clear,40,2013-09-19 10:53:00
7:53 AM,73.0,72.0,96,30.04,10.0,NNE,4.6,-,N/A,,Clear,30,2013-09-19 11:53:00
8:53 AM,80.1,72.0,76,30.05,10.0,ENE,4.6,-,0.00,,Clear,70,2013-09-19 12:53:00
9:53 AM,82.0,72.0,71,30.06,10.0,East,10.4,-,N/A,,Clear,90,2013-09-19 13:53:00
10:53 AM,84.9,72.0,65,30.08,10.0,ENE,11.5,-,N/A,,Partly Cloudy,70,2013-09-19 14:53:00
11:53 AM,84.9,71.1,63,30.09,10.0,East,8.1,-,N/A,,Mostly Cloudy,100,2013-09-19 15:53:00
12:53 PM,87.1,70.0,57,30.07,10.0,East,6.9,-,N/A,,Mostly Cloudy,100,2013-09-19 16:53:00
1:53 PM,89.1,70.0,53,30.04,10.0,ENE,9.2,-,N/A,,Scattered Clouds,60,2013-09-19 17:53:00
2:53 PM,91.9,66.9,44,30.01,10.0,NE,9.2,-,N/A,,Clear,50,2013-09-19 18:53:00
3:53 PM,88.0,71.1,57,30.01,10.0,ENE,13.8,19.6,N/A,,Clear,70,2013-09-19 19:53:00
4:53 PM,84.9,70.0,61,30.01,10.0,East,9.2,-,N/A,,Scattered Clouds,90,2013-09-19 20:53:00
5:53 PM,82.9,72.0,69,30.03,10.0,East,13.8,20.7,N/A,,Scattered Clouds,100,2013-09-19 21:53:00
6:53 PM,80.1,72.0,76,30.04,10.0,East,10.4,-,N/A,,Clear,80,2013-09-19 22:53:00
7:53 PM,78.1,72.0,81,30.04,10.0,ESE,5.8,-,N/A,,Clear,110,2013-09-19 23:53:00
8:53 PM,77.0,72.0,84,30.05,10.0,East,5.8,-,N/A,,Clear,100,2013-09-20 00:53:00
9:53 PM,77.0,70.0,79,30.06,10.0,East,4.6,-,N/A,,Clear,90,2013-09-20 01:53:00
10:53 PM,75.9,69.1,79,30.06,10.0,East,4.6,-,N/A,,Clear,80,2013-09-20 02:53:00
11:53 PM,75.9,69.1,79,30.06,10.0,East,4.6,-,N/A,,Clear,80,2013-09-20 03:53:00